Regional Weather Roundup
Issued by NWS Grand Forks, ND

Home | Current Version | Previous Version | Text Only | Print | Product List | Glossary On
Versions: 1 2 3 4 5 6 7 8 9 10 11 12 13 14 15 16 17 18 19 20 21 22 23 24 25 26 27 28 29 30 31 32 33 34 35 36 37 38 39 40 41 42 43 44 45 46 47 48 49 50
000
ASUS43 KFGF 220231
RWRFGF
PRAIRIE TO PINES  WEATHER ROUNDUP
NATIONAL WEATHER SERVICE EASTERN NORTH DAKOTA/GRAND FORKS ND
800 PM CST SUN DEC 21 2014

 **SATELLITE DATA USED TO AUGMENT SKY COVER AT AUTOMATED STATIONS**
 *****  WEATHER ACROSS EASTERN NORTH DAKOTA  *****

CITY           SKY/WX    TMP DP  RH WIND       PRES   REMARKS
GRAND FORKS    CLOUDY    32  30  92 SE10      29.58S WCI  24
GRAND FRKS AFB CLOUDY    32  32 100 SE12      29.57F WCI  23
GRAND FRKS NWS   N/A     32 N/A N/A SE13        N/A  WCI  22
DEVILS LAKE    CLOUDY    28  23  80 SE13      29.49R WCI  18
FARGO          CLOUDY    35  32  88 SE12      29.58R
WAHPETON ARPT  CLOUDY    34  32  93 S12G17    29.58S
$$

 ***** WEATHER ACROSS CENTRAL AND WESTERN NORTH DAKOTA  *****

CITY           SKY/WX    TMP DP  RH WIND       PRES   REMARKS
BISMARCK       CLOUDY    30  29  96 SE12      29.46R WCI  20
MINOT          FOG       29  28  96 SE14      29.42S VSB 1/2 WCI  18
JAMESTOWN      FOG       31  29  92 SE12      29.49S VSB 3/4 WCI  22
MINOT AFB      FOG       30  30 100 SE13      29.42S VSB 1   WCI  20
GARRISON         N/A     29  26  89 E7        29.41R WCI  22
WILLISTON      CLOUDY    29  25  85 CALM      29.36F
DICKINSON      LGT RAIN  38  35  89 SW8       29.35S
HETTINGER      LGT RAIN  37  35  92 SW6       29.39S
$$

 *****  OTHER AIRPORT OBSERVATIONS IN OUR AREA  *****

CITY           SKY/WX    TMP DP  RH WIND       PRES   REMARKS
WALHALLA         N/A     32  32 100 SE14G20   29.56F FOG     WCI  22
GRAFTON AIRPOR NOT AVBL
VALLEY CITY AR CLOUDY    30  30 100 SE12G20   29.52S FOG     WCI  21
CANDO          CLOUDY    28  28 100 SE17G23   29.50S FOG     WCI  16
CAVALIER APRT  CLOUDY    32  32 100 SE10G16   29.57F FOG     WCI  24
GWINNER        CLOUDY    34  34 100 SE9       29.53S
SHEYENNE NWR     N/A     33  32  94 S13       29.95S WCI  24
ROLLA          FOG       28  28 100 SE8       29.48S VSB 1/4 WCI  20
 ***** THE ABOVE OBSERVATIONS ARE NON NWS ARE NOT QUALITY
       CONTROLLED AND MAY MIS-REPORT RAIN FOR SNOW...
$$

  *****  WEATHER ACROSS NORTHERN MINNESOTA  *****

CITY           SKY/WX    TMP DP  RH WIND       PRES   REMARKS
FLAG ISLAND    CLOUDY    30  28  93 S10       29.64S FOG     WCI  21
WARROAD        CLOUDY    32  28  86 SE5       29.63F
ROSEAU         CLOUDY    32  28  86 SE10      29.61F WCI  24
HALLOCK        CLOUDY    32  30  93 CALM      29.59S FOG
THF RVR FALLS  CLOUDY    32  30  93 SE8       29.60S WCI  25
BAUDETTE       CLOUDY    32  29  88 SE6       29.64F
WASKISH        CLOUDY    34  32  93 CALM      29.64F
CROOKSTON      CLOUDY    34  30  86 SE6       29.60F
STEPHEN NDAWN    N/A     32  30  93 SE9         N/A  WCI  24
GREENBUSH NDAW   N/A     30  30 100 SE1         N/A
$$
  *****  WEATHER ACROSS CENTRAL AND WEST MINNESOTA  *****

CITY           SKY/WX    TMP DP  RH WIND       PRES   REMARKS
FOSSTON        CLOUDY    30  30 100 SE9       29.59S WCI  22
BEMIDJI        CLOUDY    32  31  96 SE13      29.62S WCI  22
PARK RAPIDS    CLOUDY    33  32  96 SE13      29.61F FOG     WCI  24
ELBOW LAKE     FOG       34  34 100 SE16      29.58S VSB 1   WCI  23
WADENA         CLOUDY    34  32  93 SE9       29.61F FOG
DETROIT LAKES  CLOUDY    34  32  93 SE16      29.59S FOG     WCI  23
MOORHEAD       CLOUDY    36  36 100 SE14G20   29.58S
FERGUS FALLS   CLOUDY    34  34 100 SE14      29.61S FOG     WCI  24
MORRIS MN      FOG       36  34  93 SE14      29.58F VSB 1/4
STAPLES        CLOUDY    34  34 100 SE7       29.63S FOG
$$
  *****  WEATHER ELSEWHERE ACROSS MINNESOTA  *****

CITY           SKY/WX    TMP DP  RH WIND       PRES   REMARKS
DULUTH         CLOUDY    33  31  92 SE8       29.72S FOG
INTRNTL FALLS  CLOUDY    32  30  92 SE9       29.68F FOG     WCI  24
ELY            CLOUDY    30  30 100 S6        29.72F FOG     WCI  24
CLOQUET        CLOUDY    34  32  93 SE6       29.71F FOG
WHEATON        CLOUDY    32  30  93 SE13      29.58F FOG     WCI  22
BRAINERD       CLOUDY    33  33 100 SE9       29.66F FOG
HIBBING        CLOUDY    33  30  88 SE8       29.70F FOG
ALEXANDRIA     FOG       34  33  96 SE10      29.61S VSB 3/4
SAINT CLOUD    FOG       37  34  89 SE10      29.67F VSB 3/4
MINNEAPOLIS    LGT RAIN  37  35  92 SE8       29.73F FOG
$$

  *****  WEATHER ACROSS SOUTH DAKOTA  *****

CITY           SKY/WX    TMP DP  RH WIND       PRES   REMARKS
SIOUX FALLS    CLOUDY    38  37  97 S17G26    29.56F
BROOKINGS      NOT AVBL
WATERTOWN      CLOUDY    35  34  96 S17       29.50F FOG     WCI  25
HURON          MOCLDY    35  32  88 SE14      29.47S
SISSETON         N/A     33  33 100 SE10      29.53F WCI  25
ABERDEEN       CLOUDY    36  33  89 S12       29.48F
MITCHELL       CLOUDY    37  35  92 S15       29.48F
PIERRE         CLOUDY    29  27  92 NE6       29.40S WCI  23
MOBRIDGE       FOG       30  29  96 E8        29.42R VSB 3/4 WCI  22
RAPID CITY     PTCLDY    39  34  82 N12       29.44F
$$

  *****  SOME WEATHER IN NEARBY STATES *****

CITY           SKY/WX    TMP DP  RH WIND       PRES   REMARKS
GLASGOW MT     CLOUDY    35  31  85 W9        29.38R
GREAT FALLS MT PTCLDY    36  24  62 W16       29.64R
CHEYENNE WY    MOCLDY    38  31  76 NW18G30   29.56R
SCOTTSBLUFF NE MOCLDY    36  30  79 CALM      29.51R
OMAHA NE       DRIZZLE   42  41  96 S17       29.70F FOG
DES MOINES IA  DRIZZLE   43  38  82 S15       29.79F
DAVENPORT IA   CLOUDY    35  30  82 S17       29.96S WCI  25
CHICAGO IL     CLOUDY    35  29  78 SE9       30.05F
EAU CLAIRE WI  CLOUDY    37  34  89 S10       29.80S
LA CROSSE WI   CLOUDY    39  35  86 S15G23    29.84R
$$

  *****  SOME NATIONAL WEATHER *****

CITY           SKY/WX    TMP DP  RH WIND       PRES   REMARKS
LA GUARDIA NY  CLOUDY    35  29  78 N8        30.34R
RALEIGH NC     CLOUDY    44  32  62 E7        30.25S
ATLANTA GA     CLOUDY    50  44  80 E9        30.10R
NEW ORLEANS LA CLOUDY    55  51  86 E7        29.98S FOG
OKLAHOMA CITY  CLOUDY    47  43  86 SE20G25   29.71F
ALBUQUERQUE NM MOCLDY    45  29  53 CALM      29.94R
SALT LAKE CITY CLOUDY    44  40  85 CALM      29.97R
LOS ANGELES CA CLOUDY    61  57  87 CALM      30.04S HAZE
BOISE ID       LGT RAIN  42  38  85 NW12      30.08R
SEATTLE WA     CLOUDY    50  45  81 S9        30.06R
$$

*** WEATHER ACROSS MANITOBA...SASKATCHEWAN AND ONTARIO ***
                ***ONTARIO***

CITY           SKY/WX    TMP DP  RH WIND       PRES   REMARKS
GERALDTON      LGT SNOW  32  30  93 S9        29.87F WCI  24
THUNDER BAY    FLURRIES  34  32  93 SE6       29.84F
SIOUX LOOKOUT  FRZ DRZL  30  28  93 S5        29.71  FOG
TORONTO        CLOUDY    30  21  69 S2        30.29
BIG TROUT LK   LGT SNOW  28  28 100 SE12      29.76S WCI  18
PICKLE LAKE    LGT SNOW  28  27  93 S9        29.74F WCI  20
DRYDEN         CLOUDY    30  30 100 S8        29.69S FOG     WCI  23
KENORA         FRZ DRZL  28  28 100 S10       29.65  FOG     WCI  19
$$
                *** MANITOBA***

CITY           SKY/WX    TMP DP  RH WIND       PRES   REMARKS
BRANDON        CLOUDY    27  25  93 E14       29.50F WCI  15
DAUPHIN        LGT SNOW  27  27 100 E12       29.55R VSB 1   WCI  16
ISLAND LAKE    CLOUDY    28  28 100 SE6       29.66F WCI  22
PILOT MOUND      N/A     28  28 100 CALM        N/A
THE PAS        CLOUDY    23  23 100 E6        29.60S WCI  16
THOMPSON       FRZ DRZL  21  19  93 NE5       29.69R WCI  15
WINNIPEG       CLOUDY    30  28  93 SE13      29.61F FOG     WCI  20
LYNN LAKE      CLOUDY    14  12  92 NE5       29.67R WCI   6
CHURCHILL      LGT SNOW  14  12  92 SW3       29.78S FOG
GILLAM         FRZ DRZL  21  19  93 NE5       29.74  WCI  15
$$
                ***SASKATCHEWAN***

CITY           SKY/WX    TMP DP  RH WIND       PRES   REMARKS
ESTEVAN        CLOUDY    28  27  93 E8        29.38R WCI  20
KINDERSLEY     LGT SNOW  21  19  93 NW10      29.48R WCI  10
LLOYDMINSTER   LGT SNOW  19  18  93 NW6       29.51R FOG     WCI  11
PRINCE ALBERT  PTCLDY    23  23 100 E8        29.53R FOG     WCI  14
REGINA         CLOUDY    25  25 100 E12       29.39R WCI  14
YORKTON        FOG       23  23 100 E12       29.47S VSB 3/4 WCI  12
N. BATTLEFORD  CLOUDY    19  18  93 NW3       29.53R
LA RONGE       FLURRIES  19  18  93 NE6       29.59  WCI  11
SASKATOON      FLURRIES  25  23  93 NE8       29.50R WCI  16
SWIFT CURRENT  LGT SNOW  21  21 100 NW20      29.42R WCI   6
$$
NOTE: THESE ARE AUTOMATED STATIONS WITH LIMITED QUALITY CONTROL
      "FAIR" INDICATES FEW OR NO CLOUDS BELOW 12,000 FEET WITH NO
      SIGNIFICANT WEATHER AND/OR OBSTRUCTIONS TO VISIBILITY.
      SKY/WX - SKY CONDITION AND SIGNIFICANT WEATHER.
      TMP - AIR TEMPERATURE.    DP   - DEWPOINT TEMPERATURE.
      RH  - RELATIVE HUMIDITY.  PRES - PRESSURE.
      HX  - HEAT INDEX.         WCI  - WIND CHILL INDEX.
$


USA.gov is the U.S. government's official web portal to all federal, state and local government web resources and services.